Home > Weather > Basse-Terre > Past weeks

Flag for Guadeloupe Weather for the Past 2 Weeks in Basse-Terre, Guadeloupe

Now
86 °F

Partly sunny.


Feels Like: 93 °F
Forecast: 76 / 83 °F
Wind: 16 mph from Southeast

Location: Le Raizet - Guadeloupe

Current Time: May 6, 2016 at 10:09:25 AM

Latest Report: May 6, 2016 at 9:30 AM


Visibility: N/A

Pressure: 29.98 "Hg

Humidity: 66%

Dew Point: 73 °F

Location of Basse-TerreLocation

Historic Weather in Basse-Terre — Graph

°F

Basse-Terre Temperature Yesterday

Maximum temperature yesterday: 86 °F (at 10:00 AM)
Minimum temperature yesterday: 75 °F (at 4:00 AM)
Average temperature yesterday: 80 °F

High & Low Weather Summary for the Past Weeks

 TemperatureHumidityPressure
High88 °F (Apr 22, 2:00 PM)100% (Apr 22, 3:30 AM)30.07 "Hg (Apr 22, 3:30 AM)
Low72 °F (May 2, 10:30 PM)55% (Apr 25, 10:30 AM)29.83 "Hg (Apr 24, 4:30 PM)
Average81 °F77%29.95 "Hg
* Reported Apr 21 9:00 AM — May 6 9:00 AM, Basse-Terre, Weather by CustomWeather, © 2016

Note: Actual official high and low records may vary slightly from our data, if they occured in-between our weather recording intervals... More about our weather records

Advertising

Basse-Terre Weather History for the Previous 24 Hours

Scroll right to see more
 ConditionsComfort  
Time TempWeatherWind HumidityBarometerVisibility
9:00 AM
Fri, May 6
84 °FPartly sunny.14 mph70%29.98 "HgN/A
8:30 AM82 °FPartly sunny.16 mph74%29.98 "HgN/A
8:00 AM84 °FScattered clouds.12 mph74%29.98 "HgN/A
7:30 AM82 °FPassing clouds.10 mph74%29.98 "HgN/A
7:00 AM81 °FClear.3 mph84%29.95 "Hg6 mi
6:30 AM79 °FClear.3 mph89%29.95 "Hg5 mi
6:00 AM77 °FWarm.5 mph89%29.95 "HgN/A
5:30 AM77 °FPassing clouds.8 mph83%29.92 "Hg6 mi
5:00 AM79 °FPartly cloudy.6 mph89%29.92 "Hg6 mi
4:30 AM79 °FRain. Passing clouds.6 mph84%29.92 "HgN/A
4:00 AM79 °FPassing clouds.7 mph84%29.92 "HgN/A
3:30 AM79 °FPartly cloudy.5 mph84%29.92 "HgN/A
3:00 AM79 °FPassing clouds.6 mph84%29.92 "HgN/A
2:30 AM79 °FPassing clouds.6 mph84%29.92 "HgN/A
2:00 AM79 °FPassing clouds.8 mph84%29.92 "HgN/A
1:30 AM79 °FPassing clouds.7 mph84%29.95 "HgN/A
1:00 AM79 °FPassing clouds.7 mph89%29.95 "HgN/A
12:30 AM79 °FPassing clouds.6 mph84%29.95 "HgN/A
12:00 AM79 °FPassing clouds.7 mph89%29.98 "HgN/A
11:30 PM
Thu, May 5
79 °FPassing clouds.7 mph89%29.98 "HgN/A
11:00 PM79 °FPassing clouds.7 mph89%29.98 "HgN/A
10:30 PM79 °FPartly cloudy.7 mph89%29.98 "HgN/A
10:00 PM79 °FPartly cloudy.6 mph84%29.98 "HgN/A
9:30 PM79 °FPassing clouds.5 mph84%29.98 "HgN/A
9:00 PM79 °FClear.6 mph84%29.98 "HgN/A
8:30 PM79 °FOvercast.5 mph84%29.95 "HgN/A
8:00 PM79 °FOvercast.8 mph84%29.95 "HgN/A
7:30 PM77 °FLight rain. Fog.13 mph89%29.95 "Hg3 mi
7:00 PM81 °FWarm.8 mph79%29.92 "HgN/A
6:30 PM81 °FPartly cloudy.10 mph79%29.92 "HgN/A
6:00 PM82 °FOvercast.10 mph70%29.92 "HgN/A
5:30 PM82 °FOvercast.12 mph70%29.92 "HgN/A
5:00 PM84 °FPartly sunny.14 mph66%29.92 "HgN/A
4:30 PM84 °FBroken clouds.14 mph66%29.92 "HgN/A
4:00 PM82 °FBroken clouds.15 mph74%29.92 "HgN/A
3:30 PM86 °FPartly sunny.14 mph62%29.92 "HgN/A
3:00 PM86 °FPartly sunny.14 mph62%29.92 "HgN/A
2:30 PM86 °FScattered clouds.14 mph62%29.92 "HgN/A
2:00 PM86 °FPartly sunny.14 mph62%29.92 "HgN/A
1:30 PM86 °FScattered clouds.14 mph66%29.95 "HgN/A
1:00 PM86 °FPassing clouds.13 mph62%29.95 "HgN/A
12:30 PM86 °FOvercast.14 mph62%29.98 "HgN/A
12:00 PM86 °FMostly cloudy.15 mph59%29.98 "HgN/A
11:30 AM84 °FBroken clouds.14 mph66%29.98 "HgN/A
11:00 AM84 °FBroken clouds.16 mph66%29.98 "HgN/A
10:30 AM84 °FPartly sunny.15 mph62%30.01 "HgN/A
10:00 AM86 °FBroken clouds.10 mph62%30.01 "HgN/A
Weather by CustomWeather, © 2016

See weather overviewHow to use our weather pages